Location: Shepherdstown, WV
(39.4326°N, 77.8042°W)
Time: 10:05:48
(UTC-04:00)

Transit 2A - Visible Passes

Search period start: 04 August 2021 00:00
Search period end: 14 August 2021 00:00
Orbit: 598 x 960 km, 66.7° (Epoch: 04 August)

Date Brightness Start Highest point End Pass type
(mag) Time Alt. Az. Time Alt. Az. Time Alt. Az.
05 Aug 6.8 05:40:00 10° S 05:44:04 41° ESE 05:48:21 10° NE visible
06 Aug 7.5 05:06:26 10° SSE 05:10:01 26° ESE 05:13:47 10° NE visible
07 Aug 8.1 04:33:21 10° SE 04:36:03 16° ESE 04:38:50 10° ENE visible
08 Aug 5.6 05:40:06 10° SW 05:44:26 71° WNW 05:49:07 10° NNE visible
09 Aug 5.7 05:06:33 14° SSW 05:10:16 73° ESE 05:14:55 10° NNE visible
10 Aug 6.4 04:33:40 22° S 04:36:09 45° ESE 04:40:34 10° NE visible
11 Aug 7.1 04:00:44 24° SE 04:02:07 28° ESE 04:06:02 10° NE visible
11 Aug 6.8 05:41:20 10° WSW 05:45:10 28° NW 05:49:16 10° N visible
12 Aug 7.7 03:27:45 18° ESE 03:28:08 18° ESE 03:31:12 10° ENE visible
12 Aug 6.2 05:08:15 21° WSW 05:10:49 42° NW 05:15:20 10° NNE visible
13 Aug 8.3 02:54:44 11° E 02:54:44 11° E 02:55:23 10° E visible
13 Aug 5.6 04:35:13 42° WSW 04:36:33 65° WNW 04:41:16 10° NNE visible
